Time,TemperatureF,DewpointF,PressureIn,WindDirection,WindDirectionDegrees,WindSpeedMPH,WindSpeedGustMPH,Humidity,HourlyPrecipIn,Conditions,Clouds,dailyrainin,SoftwareType,DateUTC
2013-08-10 00:06:00,61.2,53.0,29.65,ENE,57,0.0,-999.0,75,-99.99,,,0.00,weatherlink.com 1.10,2013-08-10 08:06:00,
2013-08-10 00:20:00,60.8,54.0,29.66,ENE,57,0.0,-999.0,77,-99.99,,,0.00,weatherlink.com 1.10,2013-08-10 08:20:00,
2013-08-10 00:35:00,60.2,53.0,29.66,ENE,57,0.0,-999.0,77,-99.99,,,0.00,weatherlink.com 1.10,2013-08-10 08:35:00,
2013-08-10 00:50:00,59.7,53.0,29.66,ENE,57,0.0,-999.0,78,-99.99,,,0.00,weatherlink.com 1.10,2013-08-10 08:50:00,
2013-08-10 01:06:00,59.3,53.0,29.67,ENE,57,0.0,-999.0,79,-99.99,,,0.00,weatherlink.com 1.10,2013-08-10 09:06:00,
2013-08-10 01:20:00,59.3,53.0,29.68,ENE,57,0.0,-999.0,80,-99.99,,,0.00,weatherlink.com 1.10,2013-08-10 09:20:00,
2013-08-10 01:35:00,59.3,52.0,29.68,ENE,57,0.0,-999.0,78,-99.99,,,0.00,weatherlink.com 1.10,2013-08-10 09:35:00,
2013-08-10 01:50:00,59.4,53.0,29.68,ENE,57,0.0,-999.0,79,-99.99,,,0.00,weatherlink.com 1.10,2013-08-10 09:50:00,
2013-08-10 02:06:00,59.3,53.0,29.69,ENE,57,0.0,-999.0,79,-99.99,,,0.00,weatherlink.com 1.10,2013-08-10 10:06:00,
2013-08-10 02:20:00,58.9,51.0,29.69,ENE,57,0.0,-999.0,76,-99.99,,,0.00,weatherlink.com 1.10,2013-08-10 10:20:00,
2013-08-10 02:35:00,58.7,53.0,29.70,ENE,57,0.0,-999.0,80,-99.99,,,0.00,weatherlink.com 1.10,2013-08-10 10:35:00,
2013-08-10 02:50:00,58.7,51.0,29.70,ENE,57,0.0,-999.0,75,-99.99,,,0.00,weatherlink.com 1.10,2013-08-10 10:50:00,
2013-08-10 03:06:00,59.1,52.0,29.70,ENE,57,0.0,-999.0,77,-99.99,,,0.00,weatherlink.com 1.10,2013-08-10 11:06:00,
2013-08-10 03:20:00,59.0,53.0,29.70,ENE,57,0.0,-999.0,79,-99.99,,,0.00,weatherlink.com 1.10,2013-08-10 11:20:00,
2013-08-10 03:35:00,58.3,51.0,29.71,ENE,57,0.0,-999.0,78,-99.99,,,0.00,weatherlink.com 1.10,2013-08-10 11:35:00,
2013-08-10 03:50:00,57.8,52.0,29.71,ENE,57,0.0,-999.0,81,-99.99,,,0.00,weatherlink.com 1.10,2013-08-10 11:50:00,
2013-08-10 04:06:00,57.3,52.0,29.71,ENE,57,0.0,-999.0,81,-99.99,,,0.00,weatherlink.com 1.10,2013-08-10 12:06:00,
2013-08-10 04:20:00,57.2,50.0,29.71,ENE,57,0.0,-999.0,78,-99.99,,,0.00,weatherlink.com 1.10,2013-08-10 12:20:00,
2013-08-10 04:35:00,57.0,52.0,29.73,ENE,57,0.0,-999.0,82,-99.99,,,0.00,weatherlink.com 1.10,2013-08-10 12:35:00,
2013-08-10 04:50:00,56.7,52.0,29.73,ENE,57,0.0,-999.0,83,-99.99,,,0.00,weatherlink.com 1.10,2013-08-10 12:50:00,
2013-08-10 05:06:00,56.4,51.0,29.72,ENE,57,0.0,-999.0,81,-99.99,,,0.00,weatherlink.com 1.10,2013-08-10 13:06:00,
2013-08-10 05:20:00,56.2,50.0,29.73,ENE,57,0.0,-999.0,80,-99.99,,,0.00,weatherlink.com 1.10,2013-08-10 13:20:00,
2013-08-10 05:35:00,55.9,50.0,29.74,ENE,57,0.0,-999.0,79,-99.99,,,0.00,weatherlink.com 1.10,2013-08-10 13:35:00,
2013-08-10 05:50:00,55.5,49.0,29.74,ENE,57,0.0,-999.0,80,-99.99,,,0.00,weatherlink.com 1.10,2013-08-10 13:50:00,
2013-08-10 06:06:00,54.8,49.0,29.74,ENE,57,0.0,-999.0,81,-99.99,,,0.00,weatherlink.com 1.10,2013-08-10 14:06:00,
2013-08-10 06:20:00,54.4,49.0,29.73,ENE,57,0.0,-999.0,83,-99.99,,,0.00,weatherlink.com 1.10,2013-08-10 14:20:00,
2013-08-10 06:35:00,54.5,49.0,29.73,ENE,57,0.0,-999.0,83,-99.99,,,0.00,weatherlink.com 1.10,2013-08-10 14:35:00,
2013-08-10 06:50:00,54.9,49.0,29.73,ENE,57,0.0,-999.0,81,-99.99,,,0.00,weatherlink.com 1.10,2013-08-10 14:50:00,
2013-08-10 07:06:00,55.6,48.0,29.73,ENE,57,0.0,-999.0,76,-99.99,,,0.00,weatherlink.com 1.10,2013-08-10 15:06:00,
2013-08-10 07:20:00,56.0,48.0,29.74,ENE,57,0.0,-999.0,75,-99.99,,,0.00,weatherlink.com 1.10,2013-08-10 15:20:00,
2013-08-10 07:35:00,56.0,49.0,29.74,ENE,57,0.0,-999.0,77,-99.99,,,0.00,weatherlink.com 1.10,2013-08-10 15:35:00,
2013-08-10 07:50:00,56.1,48.0,29.74,ENE,57,0.0,-999.0,75,-99.99,,,0.00,weatherlink.com 1.10,2013-08-10 15:50:00,
2013-08-10 08:06:00,56.8,49.0,29.74,ENE,57,0.0,-999.0,74,-99.99,,,0.00,weatherlink.com 1.10,2013-08-10 16:06:00,
2013-08-10 08:20:00,56.9,49.0,29.74,ENE,57,0.0,-999.0,74,-99.99,,,0.00,weatherlink.com 1.10,2013-08-10 16:20:00,
2013-08-10 08:35:00,57.5,49.0,29.74,ENE,57,0.0,-999.0,73,-99.99,,,0.00,weatherlink.com 1.10,2013-08-10 16:35:00,
2013-08-10 08:50:00,58.1,48.0,29.74,ENE,57,1.0,-999.0,70,-99.99,,,0.00,weatherlink.com 1.10,2013-08-10 16:50:00,
2013-08-10 09:06:00,58.6,48.0,29.74,NE,55,0.0,-999.0,69,-99.99,,,0.00,weatherlink.com 1.10,2013-08-10 17:06:00,
2013-08-10 09:20:00,59.1,48.0,29.74,ENE,59,0.0,-999.0,68,-99.99,,,0.00,weatherlink.com 1.10,2013-08-10 17:20:00,
2013-08-10 09:35:00,59.4,48.0,29.74,ENE,60,0.0,-999.0,66,-99.99,,,0.00,weatherlink.com 1.10,2013-08-10 17:35:00,
2013-08-10 09:50:00,59.8,48.0,29.74,ENE,60,0.0,-999.0,66,-99.99,,,0.00,weatherlink.com 1.10,2013-08-10 17:50:00,
2013-08-10 10:06:00,60.4,48.0,29.74,ENE,62,1.0,-999.0,65,-99.99,,,0.00,weatherlink.com 1.10,2013-08-10 18:06:00,
2013-08-10 10:20:00,61.3,49.0,29.74,NE,56,1.0,-999.0,64,-99.99,,,0.00,weatherlink.com 1.10,2013-08-10 18:20:00,
2013-08-10 10:35:00,62.1,49.0,29.74,NE,53,1.0,-999.0,62,-99.99,,,0.00,weatherlink.com 1.10,2013-08-10 18:35:00,
2013-08-10 10:50:00,63.3,49.0,29.74,NE,49,0.0,-999.0,59,-99.99,,,0.00,weatherlink.com 1.10,2013-08-10 18:50:00,
2013-08-10 11:06:00,64.3,49.0,29.74,ENE,57,0.0,-999.0,57,-99.99,,,0.00,weatherlink.com 1.10,2013-08-10 19:06:00,
2013-08-10 11:20:00,65.0,49.0,29.74,NE,44,1.0,-999.0,56,-99.99,,,0.00,weatherlink.com 1.10,2013-08-10 19:20:00,
2013-08-10 11:35:00,65.4,48.0,29.73,NNE,33,0.0,-999.0,53,-99.99,,,0.00,weatherlink.com 1.10,2013-08-10 19:35:00,
2013-08-10 11:50:00,65.9,48.0,29.73,NE,47,0.0,-999.0,52,-99.99,,,0.00,weatherlink.com 1.10,2013-08-10 19:50:00,
2013-08-10 12:06:00,66.7,48.0,29.73,NNE,28,0.0,-999.0,51,-99.99,,,0.00,weatherlink.com 1.10,2013-08-10 20:06:00,
2013-08-10 12:20:00,67.4,48.0,29.74,NNE,28,0.0,-999.0,50,-99.99,,,0.00,weatherlink.com 1.10,2013-08-10 20:20:00,
2013-08-10 12:35:00,67.6,48.0,29.74,NNE,28,0.0,-999.0,49,-99.99,,,0.00,weatherlink.com 1.10,2013-08-10 20:35:00,
2013-08-10 12:50:00,67.4,47.0,29.74,NNE,26,0.0,-999.0,49,-99.99,,,0.00,weatherlink.com 1.10,2013-08-10 20:50:00,
2013-08-10 13:06:00,67.4,49.0,29.74,NNE,26,0.0,-999.0,52,-99.99,,,0.00,weatherlink.com 1.10,2013-08-10 21:06:00,
2013-08-10 13:20:00,67.3,50.0,29.75,ENE,65,0.0,-999.0,55,-99.99,,,0.00,weatherlink.com 1.10,2013-08-10 21:20:00,
2013-08-10 13:35:00,66.8,53.0,29.75,ENE,65,0.0,-999.0,61,-99.99,,,0.00,weatherlink.com 1.10,2013-08-10 21:35:00,
2013-08-10 13:50:00,66.3,53.0,29.75,ENE,65,0.0,-999.0,62,-99.99,,,0.00,weatherlink.com 1.10,2013-08-10 21:50:00,
2013-08-10 14:06:00,66.2,52.0,29.75,NNE,13,0.0,-999.0,61,-99.99,,,0.00,weatherlink.com 1.10,2013-08-10 22:06:00,
2013-08-10 14:20:00,66.2,51.0,29.76,NNE,13,0.0,-999.0,59,-99.99,,,0.00,weatherlink.com 1.10,2013-08-10 22:20:00,
2013-08-10 14:35:00,65.4,52.0,29.77,NNE,13,0.0,-999.0,63,-99.99,,,0.00,weatherlink.com 1.10,2013-08-10 22:35:00,
2013-08-10 14:50:00,64.8,52.0,29.78,NNE,13,0.0,-999.0,64,-99.99,,,0.00,weatherlink.com 1.10,2013-08-10 22:50:00,
2013-08-10 15:06:00,64.5,52.0,29.78,North,5,0.0,-999.0,64,-99.99,,,0.00,weatherlink.com 1.10,2013-08-10 23:06:00,
2013-08-10 15:20:00,64.2,52.0,29.79,West,262,1.0,-999.0,64,-99.99,,,0.00,weatherlink.com 1.10,2013-08-10 23:20:00,
2013-08-10 15:35:00,64.3,52.0,29.77,NW,323,1.0,-999.0,64,-99.99,,,0.00,weatherlink.com 1.10,2013-08-10 23:35:00,
2013-08-10 15:50:00,64.5,52.0,29.78,NW,307,0.0,-999.0,64,-99.99,,,0.00,weatherlink.com 1.10,2013-08-10 23:50:00,
2013-08-10 16:06:00,65.5,52.0,29.79,NW,308,0.0,-999.0,63,-99.99,,,0.00,weatherlink.com 1.10,2013-08-11 00:06:00,
2013-08-10 16:20:00,65.7,52.0,29.79,NW,309,1.0,-999.0,61,-99.99,,,0.00,weatherlink.com 1.10,2013-08-11 00:20:00,
2013-08-10 16:35:00,66.3,50.0,29.79,NW,309,0.0,-999.0,56,-99.99,,,0.00,weatherlink.com 1.10,2013-08-11 00:35:00,
2013-08-10 16:50:00,66.7,50.0,29.80,NW,309,0.0,-999.0,56,-99.99,,,0.00,weatherlink.com 1.10,2013-08-11 00:50:00,
2013-08-10 17:06:00,68.0,51.0,29.80,NW,309,0.0,-999.0,55,-99.99,,,0.00,weatherlink.com 1.10,2013-08-11 01:06:00,
2013-08-10 17:20:00,68.8,50.0,29.81,NW,316,0.0,-999.0,51,-99.99,,,0.00,weatherlink.com 1.10,2013-08-11 01:20:00,
2013-08-10 17:35:00,69.6,51.0,29.80,NW,316,0.0,-999.0,51,-99.99,,,0.00,weatherlink.com 1.10,2013-08-11 01:35:00,
2013-08-10 17:50:00,70.4,50.0,29.81,NW,319,0.0,-999.0,48,-99.99,,,0.00,weatherlink.com 1.10,2013-08-11 01:50:00,
2013-08-10 18:06:00,70.8,49.0,29.81,NW,319,0.0,-999.0,47,-99.99,,,0.00,weatherlink.com 1.10,2013-08-11 02:06:00,
2013-08-10 18:20:00,70.9,49.0,29.82,NW,319,0.0,-999.0,46,-99.99,,,0.00,weatherlink.com 1.10,2013-08-11 02:20:00,
2013-08-10 18:35:00,70.3,48.0,29.82,NW,319,0.0,-999.0,46,-99.99,,,0.00,weatherlink.com 1.10,2013-08-11 02:35:00,
2013-08-10 18:50:00,68.9,49.0,29.82,NW,319,0.0,-999.0,49,-99.99,,,0.00,weatherlink.com 1.10,2013-08-11 02:50:00,
2013-08-10 19:06:00,68.5,50.0,29.83,NW,319,0.0,-999.0,51,-99.99,,,0.00,weatherlink.com 1.10,2013-08-11 03:06:00,
2013-08-10 19:20:00,68.7,50.0,29.84,NW,319,0.0,-999.0,51,-99.99,,,0.00,weatherlink.com 1.10,2013-08-11 03:20:00,
2013-08-10 19:35:00,69.3,49.0,29.84,North,5,0.0,-999.0,48,-99.99,,,0.00,weatherlink.com 1.10,2013-08-11 03:35:00,
2013-08-10 19:50:00,69.2,49.0,29.85,WNW,289,0.0,-999.0,49,-99.99,,,0.00,weatherlink.com 1.10,2013-08-11 03:50:00,
2013-08-10 20:06:00,68.7,48.0,29.86,NW,319,1.0,-999.0,48,-99.99,,,0.00,weatherlink.com 1.10,2013-08-11 04:06:00,
2013-08-10 20:20:00,68.5,49.0,29.86,WNW,300,1.0,-999.0,50,-99.99,,,0.00,weatherlink.com 1.10,2013-08-11 04:20:00,
2013-08-10 20:35:00,67.7,48.0,29.87,NW,309,0.0,-999.0,50,-99.99,,,0.00,weatherlink.com 1.10,2013-08-11 04:35:00,
2013-08-10 20:50:00,67.0,48.0,29.88,NW,309,0.0,-999.0,50,-99.99,,,0.00,weatherlink.com 1.10,2013-08-11 04:50:00,
2013-08-10 21:06:00,66.3,48.0,29.89,NW,309,0.0,-999.0,53,-99.99,,,0.00,weatherlink.com 1.10,2013-08-11 05:06:00,
2013-08-10 21:35:00,66.6,48.0,29.90,NW,309,0.0,-999.0,51,-99.99,,,0.00,weatherlink.com 1.10,2013-08-11 05:35:00,
2013-08-10 21:50:00,66.0,48.0,29.91,NW,309,0.0,-999.0,53,-99.99,,,0.00,weatherlink.com 1.10,2013-08-11 05:50:00,
2013-08-10 22:35:00,62.9,49.0,29.91,NW,309,0.0,-999.0,61,-99.99,,,0.00,weatherlink.com 1.10,2013-08-11 06:35:00,
2013-08-10 23:20:00,59.3,49.0,29.93,NW,309,0.0,-999.0,69,-99.99,,,0.00,weatherlink.com 1.10,2013-08-11 07:20:00,
2013-08-10 23:50:00,57.1,49.0,29.94,NW,309,0.0,-999.0,74,-99.99,,,0.00,weatherlink.com 1.10,2013-08-11 07:50:00,